カタログに戻る

STARLINK-32240

運用中通信VLEO
NORAD 60438·PAYLOAD·🇺🇸 United States

打ち上げ Aug 12, 2024 から Cape Canaveral Space Force Station

Loading…

次のパス (今後24時間)

TLE

最新Source: CelesTrak SupGP

元期: Sep 14, 2026, 13:47 UTC

1 60438C 24144P   26257.57479167 -.00025960  00000+0 -76687-3 0  2571
2 60438  53.1579  55.4334 0001093  89.5028 125.4908 15.34409394    14

AllMySatでSTARLINK-32240をリアルタイム追跡

Download on the App Store